[[{"header":{"parameterUnit":"m.s-1","parameterCategory":1,"la1":30.2991,"la2":30.254,"lo1":-89.0895,"lo2":-89.0444,"dy":0.0017,"dx":0.0017,"nx":28,"ny":28,"refTime":"2025-03-10T09:00:00:Z","depth":0,"parameterNumber":2,"parameterNumberName":"U-component_of_WINDS"},"data":[0,0,0,0,0,0,0,0,0,0,0,0,0,0,0,0,0,0,0,0,0,0,0,0,0,0,0,0,0,0,0,0,0,0,0,0,0,0,0,0,0,0,0,0,0,0,0,0,0,0,0,0,0,0,0,0,0,0,6.0276,6.0274,0,6.012,6.0118,6.0116,5.9894,5.989,5.9887,5.9883,5.9716,5.9715,5.9714,0,0,0,0,0,0,0,0,0,0,0,0,0,6.038,6.0379,6.0276,6.0274,6.0272,6.012,6.0118,6.0116,5.9895,5.989,5.9886,5.9881,5.9716,5.9715,5.9714,0,0,0,0,0,0,0,0,0,0,0,0,0,6.0291,6.0379,6.0276,6.0144,6.013,6.0121,6.0118,6.0115,5.9896,5.989,5.9884,5.9879,5.9717,5.9716,5.9714,5.982,0,0,5.971,5.9709,0,0,0,0,0,0,0,0,6.0296,6.0287,6.0165,6.0153,6.0138,6.0021,6.0093,6.0016,5.9897,5.9985,5.9883,5.9876,5.9822,5.9811,5.9794,5.9812,5.9805,5.971,5.9709,5.9709,5.9708,0,0,0,0,0,0,0,6.0302,6.0292,6.0214,6.0163,6.0147,6.0091,6.0072,6.0078,5.9937,5.9977,5.996,5.9945,5.9813,5.9796,5.9789,5.9802,5.971,5.9709,5.9708,5.9707,5.9904,5.991,0,0,0,0,0,0,6.0329,6.0299,6.0219,6.0209,6.0205,6.0094,6.0073,6.0064,5.9936,5.9911,5.995,5.9935,5.9801,5.9791,5.9782,5.99,5.9709,5.9707,5.9706,5.9898,5.9906,5.9912,0,0,0,0,0,0,6.0332,6.0324,6.0225,6.025,6.0233,6.0098,6.009,6.0064,6.0047,5.9916,5.9889,5.9959,5.9796,5.9784,5.9814,5.9891,5.9707,5.9705,5.9891,5.99,5.9909,6.0136,0,0,0,0,0,0,6.0336,6.0326,6.0365,6.0252,6.0233,6.0261,6.0095,6.0065,6.0046,6.0025,5.9917,5.9894,5.9791,5.9817,5.9813,5.9886,5.9704,5.9883,5.9895,5.9906,6.0121,6.0152,6.0178,0,0,0,0,0,6.034,6.0432,6.0368,6.036,6.0278,6.0265,6.0254,6.0135,6.0053,6.0091,6.0008,5.9897,5.9885,5.9822,5.9815,5.9889,5.9878,5.9892,5.9905,6.0108,6.0146,6.0178,0,0,0,0,0,0,6.0554,6.0415,6.0342,6.0401,6.0347,6.0228,6.0271,6.0178,6.0145,6.0126,5.9979,5.9957,6.0006,5.995,5.9883,5.9988,5.9865,5.9878,6.0022,6.0056,6.0084,6.0096,5.9703,0,0,0,0,0,6.0609,6.0611,6.0489,6.0552,6.053,6.0407,6.0396,6.0311,6.0248,6.0223,6.0142,6.0084,6.0067,6.0059,6.0035,6.0113,6.0088,6.0161,6.019,6.0214,6.0226,6.0268,6.03,5.9957,5.9957,5.9956,0,0,6.072,6.0644,6.0654,6.0594,6.0542,6.0548,6.0388,6.0399,6.0403,6.0224,6.0248,6.0189,6.0114,6.017,6.019,6.0125,6.0317,6.0232,6.0252,6.025,6.0285,6.0318,6.0347,5.9966,5.9964,5.9963,0,0,6.0926,6.0869,6.0917,6.0871,6.0796,6.0715,6.0727,6.0624,6.0578,6.0601,6.0469,6.0471,6.0443,6.0398,6.0371,6.0569,6.0467,6.0565,6.0713,6.0756,6.0783,6.0806,6.0879,6.0906,6.0578,6.0579,6.0579,0,6.1073,6.1077,6.0953,6.0975,6.0954,6.0798,6.0846,6.0806,6.0728,6.0717,6.0646,6.0613,6.0552,6.0597,6.0647,6.0629,6.064,6.0575,6.0789,6.0811,6.0831,6.0899,6.0926,6.0591,6.059,6.0589,6.0587,0,6.1263,6.1268,6.1316,6.1249,6.1233,6.1268,6.1151,6.115,6.1068,6.0995,6.1023,6.0946,6.0906,6.0911,6.0828,6.0946,6.0909,6.0817,6.0689,6.0879,6.094,6.0965,6.0609,6.0605,6.0601,6.0598,0,0,6.1593,6.1462,6.1482,6.1452,6.1362,6.1363,6.1394,6.1359,6.1362,6.1315,6.1337,6.1322,6.1238,6.1208,6.112,6.1158,6.1324,6.106,6.1056,6.1113,6.1452,6.1523,6.1555,6.1257,6.1261,6.1265,6.1459,0,6.1782,6.1826,6.1719,6.179,6.1795,6.1651,6.1677,6.1626,6.156,6.1555,6.1481,6.1474,6.1362,6.1344,6.1375,6.1297,6.139,6.1281,6.1276,6.1277,6.1299,6.1586,6.1658,6.1845,6.1482,6.1486,6.1489,0,6.2005,6.1975,6.2048,6.1959,6.1957,6.1983,6.1945,6.1942,6.1882,6.1832,6.1804,6.1704,6.1728,6.161,6.1642,6.1572,6.1564,6.1527,6.1531,6.1524,6.1394,6.1588,6.1901,6.1931,6.1525,6.1522,6.1519,0,6.2242,6.2218,6.226,6.2238,6.2135,6.2157,6.2115,6.205,6.2038,6.2005,6.1997,6.1967,6.1951,6.1931,6.1826,6.1749,6.1873,6.1744,6.1832,6.1836,6.1862,6.1862,6.218,6.1859,6.1859,6.1858,6.1858,0,6.2463,6.2513,6.2365,6.2391,6.2445,6.2323,6.2379,6.2322,6.2267,6.228,6.2153,6.2168,6.2029,6.2029,6.1948,6.199,6.1982,6.1943,6.1921,6.1954,6.196,6.1946,6.193,6.1866,6.1864,6.1863,6.1861,0,6.2734,6.2637,6.2673,6.2575,6.2552,6.2596,6.2511,6.2532,6.2461,6.248,6.2477,6.2365,6.236,6.2255,6.2225,6.2171,6.2246,6.2199,6.2267,6.2252,6.2347,6.234,6.2666,6.2704,6.236,6.2364,6.2367,0,6.288,6.2917,6.2825,6.2826,6.2791,6.2793,6.2782,6.2665,6.2659,6.2598,6.2626,6.2612,6.2593,6.2592,6.2507,6.2486,6.2438,6.2554,6.2433,6.2468,6.2441,6.2441,6.2445,6.2579,6.2583,6.2587,6.259,0,6.3152,6.3104,6.3093,6.3069,6.306,6.3034,6.2999,6.3008,6.288,6.288,6.2874,6.2861,6.2835,6.2823,6.2788,6.2744,6.2647,6.263,6.2649,6.2683,6.2722,6.2704,6.2337,6.2622,6.2618,6.2616,6.2614,6.2613,6.3365,6.3393,6.3334,6.3328,6.3292,6.3264,6.328,6.3214,6.3208,6.3179,6.3111,6.3119,6.3063,6.3007,6.2973,6.2977,6.2917,6.2945,6.2952,6.2961,6.2981,6.2724,6.297,6.2969,6.2968,6.2967,6.2966,0,6.3632,6.3589,6.3585,6.3543,6.354,6.3453,6.3412,6.3415,6.3424,6.3381,6.3368,6.3365,6.3355,6.3274,6.3254,6.3274,6.3229,6.3273,6.3269,6.3262,6.3034,6.302,6.3309,6.3309,6.3309,6.3309,6.3309,6.3309,6.377,6.3813,6.3759,6.3784,6.374,6.3748,6.3733,6.3708,6.3674,6.3677,6.3669,6.3618,6.3561,6.3538,6.3526,6.3502,6.3501,6.356,6.3522,6.331,6.3277,6.3245,6.3231,6.3561,6.3561,6.3749,6.3751,6.3753]},{"header":{"parameterUnit":"m.s-1","parameterCategory":1,"la1":30.2991,"la2":30.254,"lo1":-89.0895,"lo2":-89.0444,"dy":0.0017,"dx":0.0017,"nx":28,"ny":28,"refTime":"2025-03-10T09:00:00:Z","depth":0,"parameterNumber":3,"parameterNumberName":"V-component_of_WINDS"},"data":[0,0,0,0,0,0,0,0,0,0,0,0,0,0,0,0,0,0,0,0,0,0,0,0,0,0,0,0,0,0,0,0,0,0,0,0,0,0,0,0,0,0,0,0,0,0,0,0,0,0,0,0,0,0,0,0,0,0,-4.0172,-4.0171,0,-4.008,-4.0079,-4.0078,-3.9932,-3.9929,-3.9926,-3.9924,-3.9831,-3.9831,-3.9831,0,0,0,0,0,0,0,0,0,0,0,0,0,-4.0224,-4.0224,-4.0172,-4.0171,-4.017,-4.008,-4.0079,-4.0078,-3.9932,-3.9929,-3.9926,-3.9923,-3.9831,-3.9831,-3.9831,0,0,0,0,0,0,0,0,0,0,0,0,0,-4.0174,-4.0223,-4.0172,-4.0086,-4.0078,-4.0081,-4.0079,-4.0077,-3.9933,-3.9929,-3.9925,-3.9921,-3.9831,-3.9831,-3.9831,-3.9911,0,0,-3.9831,-3.9831,0,0,0,0,0,0,0,0,-4.0177,-4.0172,-4.01,-4.0092,-4.0082,-4.0013,-4.0063,-4.0022,-3.9934,-3.9988,-3.9924,-3.9919,-3.9895,-3.9889,-3.9881,-3.9906,-3.9902,-3.9831,-3.9831,-3.9831,-3.9831,0,0,0,0,0,0,0,-4.018,-4.0175,-4.0135,-4.0099,-4.0088,-4.0053,-4.0042,-4.0054,-3.9965,-3.9983,-3.9972,-3.9963,-3.9889,-3.9881,-3.9878,-3.9901,-3.9831,-3.9831,-3.9831,-3.9831,-3.9989,-3.9993,0,0,0,0,0,0,-4.0196,-4.0179,-4.0138,-4.0133,-4.0121,-4.0055,-4.0042,-4.0039,-3.9964,-3.9949,-3.9967,-3.9957,-3.9883,-3.9878,-3.9874,-3.9963,-3.9831,-3.9831,-3.9831,-3.9985,-3.999,-3.9995,0,0,0,0,0,0,-4.0198,-4.0194,-4.0142,-4.0153,-4.0144,-4.0059,-4.0057,-4.004,-4.0031,-3.9952,-3.9935,-3.9975,-3.988,-3.9874,-3.9903,-3.9958,-3.9831,-3.9831,-3.998,-3.9987,-3.9993,-4.0142,0,0,0,0,0,0,-4.02,-4.0195,-4.0224,-4.0155,-4.0144,-4.0172,-4.006,-4.0041,-4.0032,-4.0018,-3.9955,-3.9941,-3.9876,-3.9904,-3.9903,-3.9955,-3.9831,-3.9975,-3.9983,-3.9991,-4.0132,-4.0153,-4.017,0,0,0,0,0,-4.0202,-4.0269,-4.0226,-4.0222,-4.0177,-4.0176,-4.0169,-4.0093,-4.0037,-4.0065,-4.0015,-3.9943,-3.9952,-3.9908,-3.9906,-3.9959,-3.9971,-3.9981,-3.999,-4.0123,-4.0148,-4.017,0,0,0,0,0,0,-4.0347,-4.0259,-4.021,-4.0256,-4.0225,-4.0151,-4.0184,-4.0123,-4.0106,-4.0094,-4.0001,-3.9988,-4.003,-3.9997,-3.9949,-4.0034,-3.9951,-3.996,-4.0053,-4.0076,-4.0095,-4.0102,-3.9831,0,0,0,0,0,-4.0385,-4.039,-4.0313,-4.0361,-4.0348,-4.027,-4.0266,-4.0211,-4.0174,-4.016,-4.0111,-4.0079,-4.0075,-4.0074,-4.0065,-4.0127,-4.0112,-4.0163,-4.0183,-4.0199,-4.0208,-4.024,-4.0262,-4.0026,-4.0026,-4.0026,0,0,-4.0462,-4.0414,-4.0423,-4.0389,-4.0358,-4.0367,-4.0259,-4.0272,-4.0278,-4.0162,-4.0186,-4.0151,-4.0109,-4.0155,-4.0173,-4.0129,-4.027,-4.0211,-4.0224,-4.0224,-4.0252,-4.0274,-4.0294,-4.0032,-4.0031,-4.003,0,0,-4.0606,-4.0571,-4.0607,-4.0579,-4.0534,-4.0482,-4.0492,-4.0428,-4.04,-4.0423,-4.0337,-4.0343,-4.0337,-4.0311,-4.0298,-4.0437,-4.0371,-4.0437,-4.0538,-4.057,-4.0588,-4.0604,-4.0654,-4.0674,-4.0446,-4.0447,-4.0447,0,-4.0707,-4.0716,-4.0635,-4.0654,-4.0642,-4.0539,-4.0576,-4.0553,-4.0508,-4.0503,-4.0455,-4.0447,-4.0412,-4.0451,-4.0486,-4.0478,-4.0486,-4.0443,-4.0592,-4.0607,-4.0621,-4.0668,-4.0687,-4.0455,-4.0454,-4.0453,-4.0453,0,-4.0843,-4.0851,-4.0887,-4.0846,-4.0839,-4.0867,-4.0791,-4.0794,-4.0741,-4.0694,-4.0721,-4.0675,-4.0657,-4.0662,-4.061,-4.0696,-4.067,-4.0609,-4.0523,-4.0653,-4.0696,-4.0713,-4.0467,-4.0464,-4.0462,-4.046,0,0,-4.1073,-4.0989,-4.1004,-4.0985,-4.0929,-4.0934,-4.0959,-4.0941,-4.0946,-4.092,-4.0939,-4.0938,-4.0882,-4.0867,-4.0811,-4.0839,-4.0954,-4.0774,-4.0772,-4.0809,-4.1047,-4.1093,-4.1115,-4.091,-4.0914,-4.0916,-4.105,0,-4.1205,-4.1242,-4.1171,-4.1226,-4.1233,-4.1137,-4.1159,-4.1128,-4.1086,-4.1087,-4.1041,-4.1043,-4.0968,-4.0958,-4.0982,-4.0935,-4.1,-4.0924,-4.0928,-4.0929,-4.094,-4.1137,-4.1185,-4.1313,-4.1066,-4.1069,-4.1071,0,-4.1364,-4.1346,-4.1401,-4.1345,-4.1345,-4.1366,-4.1345,-4.1347,-4.1311,-4.1279,-4.1264,-4.1199,-4.1221,-4.1141,-4.1171,-4.1121,-4.1119,-4.1096,-4.11,-4.1096,-4.1007,-4.1138,-4.1352,-4.1372,-4.1096,-4.1094,-4.1093,0,-4.1526,-4.1516,-4.1548,-4.1535,-4.147,-4.1487,-4.1461,-4.1421,-4.1416,-4.1398,-4.1394,-4.138,-4.1372,-4.1363,-4.1297,-4.1244,-4.1336,-4.1249,-4.131,-4.1312,-4.1332,-4.1332,-4.1549,-4.1333,-4.1333,-4.1332,-4.1332,0,-4.1681,-4.1718,-4.162,-4.164,-4.168,-4.16,-4.1642,-4.1606,-4.1573,-4.1585,-4.1501,-4.1515,-4.1427,-4.1431,-4.138,-4.1413,-4.141,-4.1386,-4.1371,-4.1393,-4.1396,-4.1389,-4.1378,-4.1337,-4.1336,-4.1335,-4.1334,0,-4.1867,-4.1803,-4.1832,-4.1769,-4.1754,-4.1786,-4.1732,-4.1749,-4.1704,-4.172,-4.172,-4.1649,-4.165,-4.1583,-4.1571,-4.1536,-4.1592,-4.1562,-4.1604,-4.1594,-4.166,-4.1654,-4.1879,-4.1905,-4.1674,-4.1676,-4.1678,0,-4.1969,-4.1996,-4.1937,-4.1939,-4.1917,-4.1921,-4.1916,-4.1839,-4.1837,-4.1801,-4.1822,-4.1817,-4.1808,-4.1815,-4.1763,-4.1754,-4.1722,-4.1802,-4.172,-4.1742,-4.1724,-4.1723,-4.1726,-4.1819,-4.1822,-4.1824,-4.1826,0,-4.2158,-4.2126,-4.212,-4.2106,-4.2102,-4.2087,-4.2066,-4.2073,-4.199,-4.1992,-4.1993,-4.1986,-4.1975,-4.1971,-4.1953,-4.1926,-4.1864,-4.1853,-4.1866,-4.1888,-4.1911,-4.19,-4.1651,-4.1847,-4.1845,-4.1843,-4.1842,-4.1841,-4.2305,-4.2325,-4.2287,-4.2285,-4.2262,-4.2245,-4.2258,-4.2216,-4.2214,-4.2199,-4.2154,-4.2163,-4.2129,-4.2098,-4.2079,-4.2085,-4.2045,-4.2065,-4.207,-4.2076,-4.2089,-4.1912,-4.2081,-4.2081,-4.208,-4.208,-4.2079,0,-4.2488,-4.246,-4.2459,-4.2434,-4.2433,-4.2375,-4.235,-4.2354,-4.2362,-4.2336,-4.233,-4.2332,-4.2329,-4.2278,-4.2269,-4.2285,-4.2256,-4.2285,-4.2283,-4.2278,-4.2124,-4.2113,-4.2309,-4.2309,-4.2309,-4.2309,-4.2309,-4.2309,-4.2584,-4.2615,-4.258,-4.26,-4.2571,-4.2578,-4.257,-4.2555,-4.2534,-4.254,-4.2537,-4.2504,-4.2469,-4.2458,-4.2453,-4.2438,-4.2439,-4.2478,-4.2454,-4.2311,-4.2289,-4.2267,-4.2257,-4.2479,-4.2479,-4.2607,-4.2608,-4.2609]}]]